Meteo Giornale » Osservazioni meteo Guatemala » Guatemala Aeropuertola Aurora

ore: 13:00 - Osservazioni Meteo Guatemala Aeropuertola Aurora
Lat. 14° 35' N Lon. 90° 31' W Alt. 1489 metri s.l.m.

poco_nuvoloso

28 °C

Poco Nuvoloso

Temp. 24 Ore

18 °C

30 °C

Nord/Nord-Est

25.9 Km/h

Dew point 15 °C

Umidità 45 %

Visibilità  10 Km

Il sole sorge alle ore 05:50

Il sole tramonta alle ore 18:14

Data e Ora Cielo e Fenomeni T °C DP °C Um. % Pres. hPa Vis. km Vento km/h
Oggi h: 13:00 poco_nuvoloso Poco Nuvoloso 28 15 45 1021 10 N/NE 25.9
Oggi h: 12:00 nuvoloso Nuvoloso 28 16 48 1023 10 N/NE 22.2
Oggi h: 11:00 nuvoloso Nuvoloso 27 15 47 1024 10 N 25.9
Oggi h: 10:00 nuvoloso Nuvoloso 25 16 57 1024 10 N/NE 18.5
Oggi h: 09:00 poco_nuvoloso Poco Nuvoloso 23 15 60 1024 10 N 25.9
Oggi h: 08:00 sereno Sereno 21 16 73 1024 10 N 18.5
Oggi h: 07:00 sereno Sereno 19 17 88 1024 10 N/NE 18.5
Oggi h: 06:00 molto_nuvoloso Molto Nuvoloso 18 17 93 1023 10 NE 7.4
Oggi h: 05:00 nuvoloso Nuvoloso 19 17 88 1023 10 N/NE 14.8
Oggi h: 04:00 nuvoloso Nuvoloso 19 17 88 1023 10 N 22.2
Oggi h: 03:00 molto_nuvoloso Molto Nuvoloso 19 17 88 1023 10 N 22.2
Oggi h: 02:00 molto_nuvoloso Molto Nuvoloso 19 17 88 1023 10 N/NE 18.5
Oggi h: 01:00 nuvoloso Nuvoloso 19 17 88 1024 10 N/NE 18.5
Oggi h: 00:00 poco_nuvoloso Poco Nuvoloso 20 17 82 1024 10 N 18.5
Ieri h: 23:00 nuvoloso Nuvoloso 21 17 77 1024 10 N/NE 18.5
Ieri h: 22:00 nuvoloso Nuvoloso 21 17 77 1024 10 N/NE 18.5
Ieri h: 21:00 poco_nuvoloso Poco Nuvoloso 22 17 73 1024 10 N/NE 22.2
Ieri h: 20:00 poco_nuvoloso Poco Nuvoloso 22 17 73 1022 10 N/NE 25.9
Ieri h: 19:00 poco_nuvoloso Poco Nuvoloso 23 17 68 1022 10 N/NE 25.9
Ieri h: 18:00 molto_nuvoloso Molto Nuvoloso 25 17 61 1021 10 N/NE 25.9
Ieri h: 17:00 molto_nuvoloso Molto Nuvoloso 27 14 44 1020 10 NE 22.2
Ieri h: 16:00 molto_nuvoloso Molto Nuvoloso 28 13 39 1020 10 NE 22.2
Ieri h: 15:00 coperto_temporali Temporale 28 15 45 1020 10 NE 18.5
Ieri h: 14:00 coperto_temporali Temporale 30 15 40 1021 10 NE 18.5